RADIO ROSTO (RS-15)

Last updated on Fri Jul 11 2025 00:03:03 GMT+0000 (Coordinated Universal Time)

1 23439U 94085A 25191.57398607 -.00000061 00000+0 -51608-3 0 9991 2 23439 64.8155 135.6843 0146099 68.3122 293.3287 11.27581547257383
UTC large
Height (km)
Speed (km/s)
/
Latitude / Longitude
Inclination (degrees)
Orbital Period (minutes)
Azimuth
Elevation
Range (km)
Doppler Factor

Next 0 passes for location: London (51.5072 / 0.1276)

Sorry there are no passes over London.